Preview of NWS' New Version of Forecast
This preview is not operational and should not be used for support decisions.

Regional Weather Roundup (RWR)

Issued by Gray - Portland, ME (GYX)

                            
000
ASUS41 KGYX 220805
RWRGYX
WEATHER ROUNDUP FOR MAINE AND NEW HAMPSHIRE
NATIONAL WEATHER SERVICE GRAY ME
400 AM EDT FRI MAR 22 2019

MEZ002-005-006-010-012-015-018-020-021-024-026-027-029-220900-
MAINE
  
CITY           SKY/WX    TMP DP  RH WIND       PRES   REMARKS
PORTLAND       CLOUDY    37  33  85 NE14      29.74F                  
SANFORD        CLOUDY    36  33  89 NE12      29.70F                  
BAR HARBOR     CLOUDY    34  29  82 E5        29.83F                  
WISCASSET      CLOUDY    36  31  82 NE3       29.79F                  
ROCKLAND       MOCLDY    35  31  85 NE8       29.77F                  
FRYEBURG       CLOUDY    35  32  88 N5        29.75F                  
LEWISTONAUBURN CLOUDY    34  32  92 NE5       29.77F                  
AUGUSTA        MOCLDY    33  31  92 NE5       29.78F                  
WATERVILLE     MOCLDY    33  30  88 NE5       29.77F                  
BANGOR         CLOUDY    34  29  82 E5        29.82F                  
GREENVILLE       N/A     30  26  85 SE9       29.74F                  
MILLINOCKET    FAIR      32  25  75 CALM      29.86F                  
HOULTON        FAIR      32  27  81 SE7       29.85F                  
PRESQUE ISLE   MIX PCPN  31  29  92 SE6       29.85F                  
FRENCHVILLE    SNOW      32  28  85 SE9       29.80F VSB 1/4          
CARIBOU        LGT SNOW  32  28  85 S7        29.84F FOG              
$$

NHZ002-005-008-009-011-012-014-220900-
NEW HAMPSHIRE
  
CITY           SKY/WX    TMP DP  RH WIND       PRES   REMARKS
PORTSMOUTH     CLOUDY    38  34  86 NE15G21   29.64F                  
ROCHESTER      CLOUDY    36  34  92 NE7       29.69F                  
NASHUA         CLOUDY    37  37 100 N7        29.63F                  
MANCHESTER     LGT RAIN  37  34  89 NE13      29.62F                  
CONCORD        CLOUDY    36  34  92 NE8       29.66F                  
LACONIA        CLOUDY    35  32  88 NE10      29.69F                  
PLYMOUTH       CLOUDY    36  32  85 CALM      29.70F                  
BERLIN         CLOUDY    35  29  78 VRB7      29.71F                  
WHITEFIELD     NOT AVBL                                               
JAFFREY        FLURRIES  34  34 100 VRB5      29.57F                  
KEENE          LGT RAIN  37  34  89 VRB6      29.59F                  
LEBANON        LGT RAIN  36  31  82 N3        29.66F                  
MT WASHINGTON  CLOUDY    21  -4  33 SE30G38     N/A  WCI   3          
$$

VTZ005-007-008-220900-
VERMONT
  
CITY           SKY/WX    TMP DP  RH WIND       PRES   REMARKS
ST JOHNSBURY     N/A     33  33 100 MISG      29.67F                  
MONTPELIER     CLOUDY    33  33 100 CALM      29.70F                  
BURLINGTON     CLOUDY    36  34  92 NE3       29.66F                  
$$

MAZ007-012-024-CTZ003-RIZ002-NYZ038-NYZ072-220900-
SOUTHERN NEW ENGLAND AND NY
  
CITY           SKY/WX    TMP DP  RH WIND       PRES   REMARKS
BOSTON         LGT RAIN  41  38  89 NE17      29.61F                  
WORCESTER      RAIN      35  35 100 NE13G22   29.54F VSB 1/2          
NANTUCKET      HVY RAIN  43  41  93 E26G36    29.48F FOG              
PROVIDENCE     RAIN      41  40  96 NE18G26   29.51F FOG              
HARTFORD       LGT RAIN  39  37  92 N15       29.49F                  
ALBANY         LGT RAIN  37  34  89 N9        29.55F FOG              
NEW YORK CITY  LGT RAIN  43  41  93 NE31G37   29.33F FOG              
$$

ANZ081-ANZ082-ANZ150-NHZ014-MEZ023>029-220900-
COASTAL MARINE OBSERVATIONS
  
STATION/POSITION TIME  TEMP    WIND        PRES    WAVE
                       AIR SEA DIR/SP/G            HT/PER
                 (UTC) (F)     (DEG/KT/KT) (MB)    (FT/S)
MOUNT DESERT ROC 0700   37      70/ 19/ 21 1010.0F
MATINICUS ROCK   0700   37      90/ 19/ 20 1009.2F
ISLE OF SHOALS   0700   38      60/ 18/ 19 1006.5F
JEFFREYS LEDGE   0738      39                N/A     5/ 6
CASHES LEDGE BUO 0750   38 40              1005.4F   5/ 5
$$

.............KEY..............
   WCI - WIND CHILL
   TC  - TEMPERATURE IN CELSIUS
   VSB - VISIBILITY IN MILES
   HX  - HEAT INDEX
   FAIR- INDICATES FEW OR NO CLOUDS BELOW 12,000 FT, WITH NO 
         SIGNIFICANT WEATHER AND/OR OBSTRUCTIONS TO VISIBILITY.